Change the Weather History Date:

Sunday, February 23, 2014

  Actual Average Record
Temperature  
Mean Temperature 22 °F -  
Max Temperature 26 °F 50 °F 26 °F (2014)
Min Temperature 19 °F 22 °F 19 °F (2014)
Degree Days  
Heating Degree Days 42    
Moisture  
Dew Point 21 °F    
Average Humidity 88    
Maximum Humidity 93    
Minimum Humidity 80    
Precipitation  
Precipitation 0.00 in - - ()
Sea Level Pressure  
Sea Level Pressure 30.12 in    
Wind  
Wind Speed 13 mph (ESE)    
Max Wind Speed 18 mph    
Max Gust Speed 18 mph    
Visibility 3 miles    
Events Snow    
Averages and records for this station are not official NWS values.
T = Trace of Precipitation, MM = Missing Value Source: NWS Daily Summary

Daily Weather History Graph

Daily Weather History Graph

Search for Another Location

Airport or City:

Trip Planner

Search our weather history database for the weather conditions in past years. The results will help you decide how hot, cold, wet, or windy it might be!

Date:

Astronomy

Feb. 23, 2014 Rise Set
Actual Time 6:31 AM MST 5:33 PM MST
Civil Twilight 6:04 AM MST 6:01 PM MST
Nautical Twilight 5:32 AM MST 6:33 PM MST
Astronomical Twilight 5:00 AM MST 7:04 PM MST
Moon 1:32 AM MST (2/23) 11:37 AM MST (2/23)
Length of Visible Light 11h 57m
Length of Day
11h 01m
Last Quarter, 38% of the Moon is Illuminated
Feb 23
Last Quarter
Mar 1
New
Mar 8
First Quarter
Mar 16
Full
Mar 23
Last Quarter

Hourly Weather History & Observations

Time (MST) Temp. Windchill Dew Point Humidity Pressure Visibility Wind Dir Wind Speed Gust Speed Precip Events Conditions
12:15 AM 26.6 °F 16.2 °F 23.0 °F 86% 30.06 in 2.5 mi East 11.5 mph - N/A Snow Light Snow
12:35 AM 26.6 °F 15.2 °F 23.0 °F 86% 30.06 in 1.5 mi East 13.8 mph - N/A Snow Light Snow
12:55 AM 26.6 °F 16.2 °F 23.0 °F 86% 30.06 in 1.2 mi East 11.5 mph - N/A Snow Light Snow
1:15 AM 26.6 °F 16.2 °F 23.0 °F 86% 30.06 in 3.0 mi East 11.5 mph - N/A Snow Light Snow
1:35 AM 26.6 °F 17.5 °F 23.0 °F 86% 30.06 in 2.5 mi East 9.2 mph - N/A Snow Light Snow
1:55 AM 24.8 °F 14.0 °F 23.0 °F 93% 30.05 in 2.0 mi East 11.5 mph - N/A Snow Light Snow
2:15 AM 24.8 °F 15.3 °F 23.0 °F 93% 30.07 in 5.0 mi East 9.2 mph - N/A Snow Light Snow
2:35 AM 24.8 °F 14.6 °F 21.2 °F 86% 30.06 in 7.0 mi East 10.4 mph - N/A   Overcast
2:55 AM 24.8 °F 15.3 °F 21.2 °F 86% 30.07 in 10.0 mi East 9.2 mph - N/A   Overcast
3:15 AM 24.8 °F 16.1 °F 21.2 °F 86% 30.08 in 10.0 mi East 8.1 mph - N/A   Overcast
3:35 AM 24.8 °F 16.1 °F 21.2 °F 86% 30.10 in 10.0 mi East 8.1 mph - N/A   Overcast
3:55 AM 24.8 °F 16.9 °F 21.2 °F 86% 30.11 in 7.0 mi East 6.9 mph - N/A Snow Light Snow
4:15 AM 24.8 °F 16.9 °F 21.2 °F 86% 30.12 in 7.0 mi East 6.9 mph - N/A Snow Light Snow
4:35 AM 24.8 °F 14.6 °F 21.2 °F 86% 30.12 in 3.0 mi ESE 10.4 mph - N/A Snow Light Snow
4:55 AM 24.8 °F 15.3 °F 21.2 °F 86% 30.14 in 5.0 mi East 9.2 mph - N/A Snow Light Snow
5:15 AM 24.8 °F 14.6 °F 21.2 °F 86% 30.14 in 10.0 mi East 10.4 mph - N/A   Overcast
5:35 AM 24.8 °F 15.3 °F 21.2 °F 86% 30.14 in 10.0 mi East 9.2 mph - N/A   Overcast
5:55 AM 24.8 °F 14.6 °F 21.2 °F 86% 30.14 in 7.0 mi East 10.4 mph - N/A   Overcast
6:15 AM 24.8 °F 13.4 °F 21.2 °F 86% 30.14 in 4.0 mi East 12.7 mph - N/A Snow Light Snow
6:35 AM 24.8 °F 14.0 °F 23.0 °F 93% 30.14 in 1.5 mi ESE 11.5 mph - N/A Snow Light Snow
6:55 AM 24.8 °F 13.4 °F 23.0 °F 93% 30.13 in 1.5 mi ESE 12.7 mph - N/A Snow Light Snow
7:15 AM 24.8 °F 13.4 °F 21.2 °F 86% 30.13 in 1.2 mi ESE 12.7 mph 17.3 mph N/A Snow Light Snow
7:35 AM 24.8 °F 11.9 °F 21.2 °F 86% 30.13 in 1.8 mi SE 16.1 mph - N/A   Overcast
7:55 AM 24.8 °F 11.9 °F 21.2 °F 86% 30.14 in 1.5 mi SE 16.1 mph - N/A   Overcast
8:15 AM 24.8 °F 12.4 °F 21.2 °F 86% 30.14 in 2.5 mi SE 15.0 mph - N/A   Overcast
8:35 AM 24.8 °F 12.9 °F 21.2 °F 86% 30.15 in 2.0 mi SE 13.8 mph - N/A   Overcast
8:55 AM 24.8 °F 11.9 °F 21.2 °F 86% 30.15 in 1.5 mi ESE 16.1 mph - N/A   Overcast
9:15 AM 24.8 °F 12.4 °F 21.2 °F 86% 30.15 in 1.8 mi ESE 15.0 mph - N/A   Overcast
9:35 AM 24.8 °F 12.4 °F 21.2 °F 86% 30.16 in 1.8 mi ESE 15.0 mph - N/A   Overcast
9:55 AM 24.8 °F 11.9 °F 21.2 °F 86% 30.16 in 2.0 mi SE 16.1 mph - N/A   Overcast
10:15 AM 24.8 °F 11.9 °F 21.2 °F 86% 30.15 in 2.0 mi SE 16.1 mph - N/A   Overcast
10:35 AM 24.8 °F 11.5 °F 21.2 °F 86% 30.15 in 2.0 mi SE 17.3 mph - N/A   Overcast
10:55 AM 26.6 °F 13.4 °F 21.2 °F 80% 30.16 in 2.5 mi SE 18.4 mph - N/A   Overcast
11:15 AM 24.8 °F 11.5 °F 21.2 °F 86% 30.16 in 2.0 mi SE 17.3 mph - N/A   Overcast
11:35 AM 26.6 °F 13.8 °F 21.2 °F 80% 30.16 in 2.0 mi SSE 17.3 mph - N/A   Overcast
11:55 AM 26.6 °F 14.3 °F 21.2 °F 80% 30.16 in 2.5 mi SE 16.1 mph - N/A   Overcast
12:15 PM 26.6 °F 14.3 °F 21.2 °F 80% 30.15 in 3.0 mi SE 16.1 mph - N/A   Overcast
12:35 PM 24.8 °F 11.9 °F 21.2 °F 86% 30.15 in 2.0 mi SE 16.1 mph - N/A   Overcast
12:55 PM 24.8 °F 11.9 °F 21.2 °F 86% 30.14 in 2.0 mi SE 16.1 mph - N/A   Overcast
1:15 PM 24.8 °F 12.4 °F 21.2 °F 86% 30.14 in 2.0 mi SE 15.0 mph - N/A   Overcast
1:35 PM 24.8 °F 12.4 °F 21.2 °F 86% 30.14 in 1.5 mi SE 15.0 mph - N/A   Overcast
1:55 PM 24.8 °F 11.9 °F 21.2 °F 86% 30.13 in 1.0 mi SE 16.1 mph - N/A   Overcast
2:15 PM 24.8 °F 11.9 °F 21.2 °F 86% 30.12 in 0.8 mi SE 16.1 mph - N/A   Overcast
2:35 PM 24.8 °F 11.5 °F 21.2 °F 86% 30.12 in 1.2 mi ESE 17.3 mph - N/A   Overcast
2:55 PM 24.8 °F 11.9 °F 21.2 °F 86% 30.11 in 1.0 mi ESE 16.1 mph - N/A   Overcast
3:15 PM 24.8 °F 11.9 °F 21.2 °F 86% 30.11 in 1.0 mi ESE 16.1 mph - N/A   Overcast
3:35 PM 24.8 °F 12.4 °F 21.2 °F 86% 30.11 in 0.8 mi ESE 15.0 mph 18.4 mph N/A   Overcast
3:55 PM 24.8 °F 11.1 °F 21.2 °F 86% 30.11 in 1.0 mi ESE 18.4 mph - N/A   Overcast
4:15 PM 23.0 °F 9.2 °F 21.2 °F 93% 30.11 in 1.0 mi ESE 17.3 mph - N/A   Overcast
4:35 PM 23.0 °F 9.6 °F 21.2 °F 93% 30.11 in 1.2 mi ESE 16.1 mph - N/A   Overcast
4:55 PM 23.0 °F 10.1 °F 19.4 °F 86% 30.12 in 1.2 mi East 15.0 mph - N/A   Overcast
5:15 PM 21.2 °F 7.3 °F 19.4 °F 93% 30.12 in 1.2 mi East 16.1 mph - N/A   Overcast
5:35 PM 21.2 °F 7.8 °F 19.4 °F 93% 30.13 in 1.2 mi East 15.0 mph - N/A   Overcast
5:55 PM 21.2 °F 7.8 °F 19.4 °F 93% 30.14 in 1.5 mi East 15.0 mph - N/A   Overcast
6:15 PM 21.2 °F 7.8 °F 19.4 °F 93% 30.14 in 1.5 mi East 15.0 mph - N/A   Overcast
6:35 PM 21.2 °F 8.3 °F 19.4 °F 93% 30.14 in 1.2 mi East 13.8 mph - N/A   Overcast
6:55 PM 21.2 °F 7.8 °F 17.6 °F 86% 30.14 in 1.2 mi East 15.0 mph - N/A   Overcast
7:15 PM 19.4 °F 6.6 °F 17.6 °F 93% 30.14 in 1.2 mi East 12.7 mph - N/A   Overcast
7:35 PM 19.4 °F 6.0 °F 17.6 °F 93% 30.14 in 1.2 mi ESE 13.8 mph - N/A   Overcast
7:55 PM 21.2 °F 8.3 °F 17.6 °F 86% 30.14 in 1.5 mi ESE 13.8 mph - N/A   Overcast
8:15 PM 19.4 °F 7.2 °F 17.6 °F 93% 30.13 in 1.5 mi ESE 11.5 mph - N/A   Overcast
8:35 PM 21.2 °F 8.3 °F 17.6 °F 86% 30.14 in 1.8 mi ESE 13.8 mph - N/A   Overcast
8:55 PM 21.2 °F 9.5 °F 17.6 °F 86% 30.14 in 1.5 mi ESE 11.5 mph - N/A   Overcast
9:15 PM 21.2 °F 8.3 °F 19.4 °F 93% 30.14 in 1.5 mi ESE 13.8 mph - N/A   Overcast
9:35 PM 21.2 °F 8.3 °F 19.4 °F 93% 30.13 in 1.8 mi ESE 13.8 mph - N/A   Overcast
9:55 PM 21.2 °F 9.5 °F 19.4 °F 93% 30.13 in 1.8 mi ESE 11.5 mph - N/A   Overcast
10:15 PM 21.2 °F 9.5 °F 19.4 °F 93% 30.13 in 1.8 mi ESE 11.5 mph - N/A   Overcast
10:35 PM 21.2 °F 10.1 °F 19.4 °F 93% 30.14 in 1.5 mi ESE 10.4 mph - N/A   Overcast
10:55 PM 21.2 °F 9.5 °F 19.4 °F 93% 30.13 in 1.5 mi ESE 11.5 mph - N/A   Overcast
11:15 PM 21.2 °F 10.1 °F 19.4 °F 93% 30.12 in 1.8 mi ESE 10.4 mph - N/A   Overcast
11:35 PM 21.2 °F 8.9 °F 19.4 °F 93% 30.10 in 1.8 mi SE 12.7 mph - N/A   Overcast
11:55 PM 21.2 °F 10.1 °F 19.4 °F 93% 30.10 in 1.8 mi SE 10.4 mph - N/A   Overcast